Weather in Nova Borova

Ukraine / Zhytomyr Region     50°41′32″N   28°38′12″E
temp.,
°C
wind,
m/s
gust,
m/s
humid.,
%
clouds,
%
prec.,
mm/h
press.,
hPa
HPBL,
m
20 june, sun
sun2000:00+19e410954 2.8 1018228
03:00+18e4109711 2.8 1018244
06:00+18ene399753 0.0 1017241
09:00+22e5884100 0.0 1017476
12:00+26ene7105988 0.0 10161043
15:00+26e7105677 0.0 10151558
18:00+25e71064100 0.0 1014910
21:00+20e4108255 0.0 1015285
21 june, mon
mon2100:00+18e369248 0.0 1015102
03:00+17e369711 0.0 1014141
06:00+17ene379669 0.0 1014186
09:00+21e56800 0.0 1014492
12:00+25ese466697 0.1 10131397
15:00+26sse356583 0.1 10121312
18:00+27sse356674 0.0 10121227
21:00+22s22837 0.1 101212
22 june, tue
tue2200:00+20se33905 0.0 101336
03:00+19se22935 0.0 101327
06:00+19ese22937 0.0 101336
09:00+24e3478100 0.0 1014395
12:00+28se346443 0.0 10141146
15:00+29ese455596 0.0 10131579
18:00+29ese466210 0.0 10131213
21:00+23se35825 0.0 101469
23 june, wed
wed2300:00+20ese338910 0.0 101533
03:00+18ese33915 0.0 101530
06:00+19e349098 0.0 101572
09:00+24ene347568 0.0 1015368
12:00+27e3362100 0.0 1015808
15:00+30e2451100 0.0 10151330
18:00+30se2357100 0.0 10151011
21:00+24e357894 0.0 101579
24 june, thu
thu2400:00+21ese33886 0.0 101638
03:00+21se229319 0.0 101723
06:00+20ese239371 0.0 101658
09:00+25ese23782 0.0 1017450
12:00+29ese346418 0.0 10171339
15:00+31se45543 0.1 10171845
18:00+30sse34584 0.0 10171552
21:00+25sw2276100 0.4 101715